Tracking 19795 objects as of 20-Jul-2019
HD Live streaming from Space Station
objects crossing your sky now

XSS 10

Track XSS 10 now!
10-day predictions
XSS 10 is classified as:


NORAD ID: 27664
Int'l Code: 2003-005B
Perigee: 515.0 km
Apogee: 764.4 km
Inclination: 39.8 °
Period: 97.4 minutes
Semi major axis: 7010 km
RCS: 0.183 m2 (medium)
Launch date: January 29, 2003
Source: United States (US)
Launch site: AIR FORCE EASTERN TEST RANGE (AFETR)
aabbcc
Your satellite tracking list
Your tracking list is empty




NASA's NSSDC Master Catalog

Two Line Element Set (TLE):
1 27664U 03005B   19200.85068710 -.00000076  00000-0  76424-5 0  9992
2 27664  39.7511  35.6934 0177880 328.9630  30.0741 14.78969537888070
Source of the keplerian elements: AFSPC